Regional Weather Roundup
Issued by NWS

Home | Current Version | Previous Version | Graphics & Text | Print | Product List | Glossary On
Versions: 1 2 3 4 5 6 7 8 9 10 11 12 13 14 15 16 17 18 19 20 21 22 23 24 25 26 27 28 29 30 31 32 33 34 35 36 37 38 39 40 41 42 43 44 45 46 47 48 49 50
000
ASUS44 KMEG 220800
RWRTN
TENNESSEE HOURLY STATE WEATHER ROUNDUP
NATIONAL WEATHER SERVICE MEMPHIS TN
200 AM CST MON DEC 22 2014

TNZ002-004-019-021-049-052-054-088>092-220900-
WEST TENNESSEE

CITY           SKY/WX    TMP DP  RH WIND       PRES   REMARKS
MEMPHIS INTL   CLOUDY    47  43  86 S10G20    29.89F
NWS MEMPHIS      N/A     46 N/A N/A MISG        N/A
JACKSON        CLOUDY    48  43  82 SE7       29.91F
DYERSBURG      CLOUDY    43  30  61 E5        29.91F
UNION CITY     CLOUDY    41  37  87 SE7       29.91F
PARIS          CLOUDY    39  36  87 SE9       29.92F WCI  33
LEXINGTON      CLEAR     39  37  93 SE3       29.92F
SAVANNAH       CLOUDY    45  45 100 S5        29.94F
$$

TNZ008-025-027-028-033-062-065-066-220900-
NORTH MIDDLE TENNESSEE

CITY           SKY/WX    TMP DP  RH WIND       PRES   REMARKS
NASHVILLE      CLOUDY    45  42  89 SE7       29.99F
CLARKSVILLE    CLOUDY    37  33  85 SE6       29.96F WCI  32
COOKEVILLE     CLOUDY    46  43  87 S6        30.00S
CROSSVILLE     CLOUDY    45  38  76 SE5       30.02F
$$

TNZ061-075-076-078-094-096-097-220900-
SOUTH MIDDLE TENNESSEE

CITY           SKY/WX    TMP DP  RH WIND       PRES   REMARKS
FAYETTEVILLE   CLOUDY    46  43  87 MISG      29.98F
TULLAHOMA      CLOUDY    46  43  87 S6        29.99F
WINCHESTER     CLOUDY    46  43  87 SE10      30.00S
SHELBYVILLE    CLOUDY    48  45  87 SE5       29.99F
$$

TNZ017-018-042-046-047-220900-
NORTHEAST TENNESSEE

CITY           SKY/WX    TMP DP  RH WIND       PRES   REMARKS
TRI CITIES     CLOUDY    38  34  85 CALM      30.09S
ELIZABETHTON   CLOUDY    43  36  75 E6        30.08F
$$

TNZ012-013-036-069-073-074-220900-
CENTRAL EAST TENNESSEE

CITY           SKY/WX    TMP DP  RH WIND       PRES   REMARKS
KNOXVILLE      CLOUDY    43  36  76 N6        30.04F
OAK RIDGE      CLOUDY    45  37  73 CALM      30.06F
GATLINBURG     CLOUDY    39  36  87 CALM      30.04F
$$

TNZ083-085-099-220900-
SOUTHEAST TENNESSEE

CITY           SKY/WX    TMP DP  RH WIND       PRES   REMARKS
CHATTANOOGA    CLOUDY    46  40  79 CALM      30.04F
$$

SKY/WX REPORTED AS FAIR MEANS FEW OR NO CLOUDS BELOW
12 THOUSAND FEET.



USA.gov is the U.S. government's official web portal to all federal, state and local government web resources and services.